Temp
-13 -13 -13 -13 -13 -13 -13 -13 -13 -13 -13 -13 -13 -13 -13 -13 -13 -13 -13 -13 -13 -13 -13 -13 -13 -13 -13 -13 -13 -13 -13 -13 -13 -13 -13 -14 -14 -14 -14 -15 -15 -16
-13 -13 -13 -13 -13 -13 -13 -13 -13 -13 -13 -13 -13 -13 -13 -13 -13 -13 -13 -13 -13 -13 -13 -13 -13 -13 -13 -13 -13 -13 -13 -13 -13 -13 -13 -14 -14 -14 -14 -15 -15 -15
-13 -13 -13 -13 -13 -13 -13 -13 -13 -13 -13 -13 -13 -13 -13 -14 -13 -13 -13 -13 -14 -13 -13 -13 -13 -13 -13 -13 -13 -13 -13 -13 -13 -14 -14 -14 -14 -14 -14 -14 -15 -15
-13 -13 -13 -13 -13 -13 -13 -13 -13 -13 -13 -13 -13 -13 -13 -14 -13 -13 -13 -13 -14 -13 -13 -13 -13 -13 -13 -13 -14 -14 -14 -14 -14 -14 -14 -14 -14 -14 -14 -14 -15 -15
-13 -13 -13 -13 -13 -13 -13 -13 -13 -13 -13 -13 -13 -13 -13 -14 -13 -13 -13 -13 -13 -13 -13 -13 -13 -13 -13 -13 -14 -14 -14 -14 -14 -14 -14 -14 -14 -14 -14 -14 -15 -15
-13 -13 -13 -13 -13 -13 -13 -13 -13 -13 -13 -13 -13 -13 -13 -14 -14 -14 -13 -13 -13 -13 -13 -13 -13 -13 -13 -14 -14 -14 -14 -14 -14 -14 -14 -14 -14 -14 -15 -15 -15 -15
-13 -13 -13 -13 -13 -13 -13 -13 -13 -13 -13 -13 -13 -13 -13 -14 -14 -14 -14 -14 -14 -13 -13 -13 -13 -13 -14 -14 -14 -14 -14 -14 -14 -14 -14 -14 -15 -15 -15 -15 -15 -15
-13 -13 -13 -13 -13 -14 -14 -14 -14 -14 -14 -14 -14 -13 -14 -14 -14 -14 -14 -14 -14 -14 -13 -13 -13 -14 -14 -14 -14 -14 -14 -14 -14 -15 -15 -15 -15 -15 -15 -15 -15 -15
-13 -13 -13 -13 -14 -14 -14 -14 -14 -14 -14 -14 -14 -14 -14 -14 -14 -14 -14 -14 -14 -14 -14 -14 -14 -14 -14 -14 -14 -14 -14 -14 -15 -15 -15 -15 -15 -15 -15 -15 -15 -16
-13 -13 -13 -14 -14 -14 -14 -14 -14 -14 -14 -14 -14 -14 -14 -14 -14 -14 -14 -14 -14 -14 -14 -14 -14 -14 -14 -14 -14 -14 -14 -14 -15 -15 -15 -15 -15 -15 -15 -16 -16 -16
-13 -13 -13 -14 -14 -14 -14 -14 -14 -14 -14 -14 -14 -14 -14 -14 -14 -14 -14 -14 -14 -14 -14 -14 -14 -14 -14 -14 -14 -14 -14 -15 -15 -15 -15 -15 -15 -16 -16 -16 -16 -16
-13 -13 -13 -13 -14 -14 -14 -14 -14 -14 -14 -14 -14 -14 -14 -14 -14 -14 -14 -14 -14 -14 -14 -14 -14 -14 -14 -14 -14 -14 -14 -15 -15 -15 -15 -15 -16 -16 -16 -16 -16 -16
-13 -13 -13 -13 -14 -14 -14 -14 -14 -14 -14 -14 -14 -14 -14 -14 -14 -14 -14 -14 -14 -14 -14 -14 -14 -14 -14 -14 -14 -14 -14 -15 -15 -15 -15 -15 -16 -16 -16 -16 -16 -16
-13 -13 -13 -13 -13 -14 -14 -14 -14 -14 -14 -14 -14 -14 -14 -14 -14 -14 -14 -14 -14 -14 -14 -15 -15 -14 -14 -14 -14 -14 -15 -15 -15 -15 -15 -15 -15 -16 -16 -16 -16 -16
-13 -13 -13 -13 -13 -14 -14 -14 -14 -14 -14 -14 -14 -14 -14 -14 -14 -14 -15 -15 -15 -15 -15 -15 -15 -15 -15 -15 -15 -15 -15 -15 -15 -15 -15 -15 -15 -16 -16 -16 -16 -16
-13 -13 -14 -14 -14 -14 -14 -14 -14 -14 -14 -14 -14 -14 -14 -14 -14 -14 -15 -15 -15 -15 -15 -15 -15 -15 -15 -15 -15 -15 -15 -15 -15 -15 -15 -15 -15 -16 -16 -16 -16 -16
-13 -13 -14 -14 -14 -14 -14 -14 -14 -14 -14 -14 -14 -14 -14 -14 -14 -14 -15 -15 -15 -15 -15 -15 -15 -15 -15 -15 -15 -15 -15 -15 -15 -15 -15 -15 -15 -16 -16 -16 -16 -16
-13 -13 -14 -14 -14 -14 -14 -14 -14 -14 -14 -14 -14 -14 -14 -14 -14 -14 -15 -15 -15 -15 -15 -15 -15 -15 -15 -15 -15 -15 -15 -15 -15 -15 -15 -15 -15 -16 -16 -16 -16 -16
-13 -13 -13 -14 -14 -14 -14 -14 -14 -14 -14 -14 -14 -14 -14 -15 -15 -15 -15 -15 -15 -15 -15 -15 -15 -15 -15 -15 -15 -15 -15 -15 -15 -15 -15 -15 -15 -16 -16 -16 -16 -16
-13 -13 -13 -14 -14 -14 -14 -14 -14 -14 -14 -14 -14 -14 -15 -15 -15 -15 -15 -15 -15 -15 -15 -15 -15 -15 -15 -15 -15 -15 -15 -15 -15 -15 -15 -15 -16 -16 -16 -16 -16 -16
-13 -13 -13 -14 -14 -14 -14 -14 -14 -14 -14 -14 -14 -14 -15 -15 -15 -15 -15 -15 -15 -15 -15 -15 -15 -15 -15 -15 -15 -16 -15 -15 -15 -15 -15 -16 -16 -16 -16 -16 -16 -16
-13 -13 -13 -14 -14 -14 -14 -14 -14 -14 -14 -14 -14 -14 -15 -15 -15 -15 -15 -15 -15 -15 -15 -15 -15 -15 -15 -15 -15 -16 -16 -15 -15 -15 -15 -16 -16 -16 -16 -16 -16 -16
-13 -13 -13 -14 -14 -14 -14 -14 -14 -14 -14 -14 -14 -14 -15 -15 -15 -15 -15 -15 -15 -15 -15 -15 -15 -15 -15 -15 -15 -15 -16 -16 -15 -15 -15 -16 -16 -16 -16 -16 -16 -16
-13 -13 -13 -14 -14 -14 -14 -14 -14 -14 -14 -14 -14 -14 -14 -14 -15 -15 -15 -15 -15 -15 -15 -15 -15 -15 -15 -15 -15 -15 -16 -16 -16 -15 -16 -16 -16 -16 -16 -16 -16 -16
-13 -13 -13 -14 -14 -14 -14 -14 -14 -14 -14 -14 -14 -14 -14 -14 -14 -15 -15 -15 -15 -15 -15 -15 -15 -15 -15 -15 -15 -15 -15 -16 -16 -15 -16 -16 -16 -16 -16 -16 -16 -16
-14 -13 -13 -14 -14 -14 -14 -13 -14 -14 -14 -14 -14 -14 -14 -14 -14 -14 -15 -15 -15 -15 -15 -15 -15 -15 -15 -15 -15 -15 -15 -15 -15 -15 -16 -16 -16 -16 -16 -16 -16 -16
Height
5765 5764 5762 5761 5759 5758 5756 5755 5753 5751 5749 5747 5745 5742 5740 5737 5734 5732 5729 5726 5723 5719 5716 5713 5710 5706 5703 5700 5696 5692 5688 5685 5681 5677 5673 5669 5665 5661 5657 5654 5651 5647
5765 5763 5762 5760 5759 5757 5756 5755 5753 5751 5749 5747 5745 5742 5739 5737 5734 5732 5729 5725 5722 5719 5716 5713 5710 5706 5703 5700 5696 5692 5689 5685 5681 5677 5673 5669 5665 5662 5658 5654 5651 5648
5764 5763 5761 5760 5758 5757 5756 5754 5753 5751 5749 5747 5744 5742 5739 5737 5735 5732 5729 5725 5722 5719 5716 5713 5710 5706 5703 5700 5696 5693 5689 5685 5681 5678 5674 5670 5666 5662 5658 5655 5651 5648
5764 5763 5761 5759 5758 5756 5755 5754 5752 5750 5748 5746 5744 5742 5739 5737 5734 5732 5728 5725 5722 5719 5716 5713 5710 5707 5703 5700 5697 5693 5689 5685 5682 5678 5674 5670 5666 5662 5659 5655 5652 5648
5764 5762 5761 5759 5758 5756 5755 5753 5752 5750 5748 5746 5744 5741 5739 5737 5734 5731 5728 5725 5722 5719 5716 5713 5710 5707 5703 5700 5697 5693 5690 5686 5682 5678 5674 5670 5666 5662 5659 5655 5652 5648
5763 5762 5760 5759 5757 5756 5754 5753 5751 5750 5748 5746 5744 5741 5739 5736 5734 5731 5728 5725 5722 5719 5716 5713 5710 5707 5703 5700 5697 5693 5690 5686 5682 5678 5674 5671 5667 5663 5659 5655 5652 5648
5763 5761 5760 5758 5757 5755 5754 5752 5751 5749 5747 5745 5743 5741 5738 5736 5734 5731 5728 5726 5723 5720 5716 5713 5710 5707 5703 5700 5697 5693 5690 5686 5682 5678 5674 5671 5667 5663 5659 5655 5651 5648
5763 5761 5759 5758 5756 5755 5753 5752 5750 5748 5746 5744 5742 5740 5738 5736 5734 5731 5728 5726 5723 5720 5717 5713 5710 5707 5703 5700 5696 5693 5689 5686 5682 5678 5674 5671 5667 5663 5659 5655 5651 5648
5762 5761 5759 5757 5756 5754 5753 5751 5749 5747 5745 5744 5742 5740 5738 5735 5733 5731 5728 5726 5723 5720 5717 5713 5710 5707 5703 5700 5696 5693 5689 5685 5682 5678 5675 5671 5667 5663 5660 5655 5651 5647
5762 5760 5759 5757 5755 5754 5752 5750 5749 5747 5745 5743 5741 5739 5737 5735 5733 5730 5728 5725 5723 5720 5717 5713 5710 5707 5703 5700 5696 5692 5689 5685 5681 5678 5674 5671 5667 5663 5659 5655 5651 5647
5762 5760 5758 5757 5755 5753 5752 5750 5748 5746 5744 5742 5740 5738 5736 5734 5732 5730 5727 5725 5722 5719 5716 5713 5710 5707 5703 5699 5696 5692 5688 5685 5681 5678 5674 5670 5666 5663 5659 5655 5651 5647
5761 5760 5758 5756 5754 5753 5751 5749 5748 5746 5744 5742 5739 5737 5735 5733 5731 5729 5726 5724 5721 5719 5716 5713 5709 5706 5703 5699 5696 5692 5688 5685 5681 5678 5674 5670 5666 5662 5658 5655 5650 5646
5761 5759 5757 5755 5754 5752 5751 5749 5747 5745 5743 5741 5739 5737 5734 5732 5730 5728 5725 5723 5720 5718 5715 5712 5709 5706 5702 5699 5695 5692 5688 5684 5681 5677 5674 5670 5666 5662 5658 5654 5649 5645
5760 5758 5756 5755 5753 5751 5750 5748 5746 5744 5742 5740 5738 5736 5734 5732 5729 5727 5725 5722 5719 5717 5714 5711 5708 5705 5702 5698 5695 5691 5687 5684 5680 5677 5673 5669 5666 5661 5657 5653 5648 5644
5759 5757 5756 5754 5753 5751 5749 5747 5746 5744 5742 5740 5738 5735 5733 5731 5729 5726 5724 5722 5719 5716 5713 5710 5707 5704 5701 5698 5694 5691 5687 5684 5680 5676 5673 5669 5665 5660 5656 5652 5647 5643
5758 5756 5755 5753 5752 5750 5749 5747 5745 5743 5741 5739 5737 5735 5732 5730 5728 5726 5723 5721 5718 5715 5713 5709 5706 5703 5700 5697 5693 5690 5687 5683 5680 5676 5672 5668 5664 5660 5655 5651 5647 5642
5757 5755 5753 5752 5750 5749 5747 5746 5744 5742 5740 5738 5736 5734 5731 5729 5727 5725 5722 5720 5718 5715 5712 5709 5706 5703 5699 5696 5693 5689 5686 5683 5679 5675 5671 5667 5663 5659 5655 5650 5646 5641
5756 5754 5752 5751 5749 5747 5746 5744 5742 5741 5739 5737 5735 5732 5730 5728 5726 5724 5721 5719 5717 5714 5711 5708 5705 5702 5699 5696 5692 5688 5685 5682 5679 5675 5671 5666 5662 5658 5654 5649 5645 5640
5755 5753 5751 5749 5748 5746 5744 5742 5741 5739 5737 5735 5733 5731 5729 5727 5724 5722 5720 5718 5716 5713 5710 5707 5705 5702 5698 5695 5692 5688 5684 5680 5678 5674 5670 5666 5662 5658 5653 5649 5644 5639
5754 5752 5750 5748 5746 5745 5743 5741 5739 5737 5735 5733 5731 5730 5728 5726 5723 5721 5719 5717 5714 5712 5709 5707 5704 5701 5698 5695 5691 5688 5683 5680 5676 5673 5670 5666 5661 5657 5653 5648 5643 5638
5753 5751 5749 5747 5745 5743 5742 5739 5737 5735 5733 5731 5729 5728 5726 5724 5722 5719 5718 5716 5713 5711 5708 5706 5703 5700 5697 5694 5691 5687 5684 5680 5676 5672 5669 5665 5661 5657 5652 5647 5642 5637
5751 5749 5747 5745 5743 5742 5740 5738 5736 5733 5731 5729 5727 5725 5724 5722 5720 5718 5716 5714 5712 5709 5707 5705 5702 5699 5696 5693 5690 5687 5683 5680 5676 5672 5668 5665 5660 5656 5652 5647 5642 5637
5749 5748 5746 5743 5741 5740 5738 5736 5734 5732 5730 5728 5726 5724 5722 5720 5718 5716 5714 5712 5710 5708 5706 5703 5701 5698 5695 5692 5689 5686 5683 5679 5676 5672 5668 5664 5660 5656 5651 5646 5641 5636
5747 5746 5744 5742 5740 5738 5736 5735 5733 5731 5728 5726 5724 5722 5720 5718 5716 5715 5712 5710 5709 5707 5704 5702 5699 5697 5694 5691 5688 5685 5682 5679 5675 5671 5667 5663 5659 5655 5651 5646 5641 5636
5744 5743 5741 5740 5737 5736 5734 5733 5731 5729 5727 5724 5722 5720 5718 5716 5714 5713 5711 5709 5707 5705 5703 5700 5698 5695 5692 5689 5687 5684 5681 5678 5675 5671 5667 5663 5659 5655 5651 5646 5641 5636
5742 5740 5738 5737 5735 5733 5732 5730 5728 5726 5724 5722 5721 5719 5716 5714 5712 5711 5709 5707 5705 5703 5701 5698 5696 5694 5691 5688 5685 5683 5680 5677 5674 5670 5667 5663 5659 5655 5651 5647 5642 5637
Wind_Speed
12 13 12 13 14 15 15 16 16 17 18 20 21 21 22 24 26 26 25 26 26 26 26 26 26 28 29 30 30 30 31 32 32 33 34 35 36 37 37 37 35 34
12 12 12 12 14 15 15 15 16 17 18 20 22 22 22 23 25 26 26 26 27 27 27 27 27 28 29 30 30 30 30 31 31 32 33 34 35 35 36 37 37 36
12 12 12 12 14 15 16 16 16 17 18 21 22 23 23 23 24 26 26 26 27 28 27 27 28 28 29 30 30 30 30 30 30 31 32 33 33 34 35 36 36 36
12 12 12 12 13 14 16 17 17 17 18 20 22 23 23 23 23 25 26 26 27 27 28 28 28 29 29 30 30 30 30 30 30 30 31 32 32 33 34 34 35 36
12 12 12 12 12 13 15 16 17 18 18 20 21 23 24 23 23 24 25 26 26 27 28 28 29 29 29 30 30 30 30 30 30 30 31 31 32 32 33 33 34 35
12 12 13 13 13 13 14 16 17 18 19 20 20 22 24 24 24 24 24 25 25 27 28 28 29 29 29 30 30 30 30 30 31 31 31 31 31 32 32 33 33 34
12 13 13 14 14 13 14 15 17 18 19 20 20 21 22 24 25 24 24 25 25 26 27 28 29 30 30 30 30 31 31 31 32 32 32 31 31 31 32 32 33 33
12 13 13 14 14 15 15 16 17 18 19 20 20 20 21 23 24 24 25 25 26 27 27 28 29 30 30 31 31 31 32 32 32 33 33 33 32 32 32 32 33 33
12 13 13 14 15 16 16 17 17 18 19 20 21 20 20 21 23 24 24 26 27 28 29 29 29 30 31 31 32 32 33 33 33 33 34 34 34 34 33 33 33 33
12 13 14 14 15 16 16 17 17 18 19 20 21 20 20 20 22 23 24 25 27 28 29 30 30 31 31 32 33 33 34 34 34 34 34 35 35 35 35 34 34 34
14 14 14 15 15 16 16 17 17 18 18 19 20 21 20 20 22 23 24 25 26 28 29 29 30 31 32 33 33 34 34 34 34 34 35 36 36 36 36 36 36 35
15 15 15 15 15 16 16 17 18 18 18 19 20 21 21 21 21 23 24 26 26 27 28 29 30 31 33 34 34 34 35 35 35 35 35 36 37 37 38 38 38 38
16 16 15 15 15 15 16 17 18 18 19 19 19 20 21 21 21 22 24 26 27 27 28 28 29 30 32 33 34 35 36 36 36 36 36 36 37 38 39 40 41 41
16 16 16 16 16 16 16 17 18 18 19 19 20 20 21 21 21 22 23 24 26 27 28 29 29 29 30 32 34 35 36 36 37 37 37 37 38 39 40 41 43 43
17 17 17 18 18 17 17 18 18 19 19 20 21 21 22 22 22 23 23 24 25 27 28 29 29 30 30 31 33 35 36 37 37 37 38 38 39 40 41 43 44 45
18 18 18 18 19 19 19 19 19 20 20 21 21 22 23 23 23 24 24 24 24 25 27 29 30 30 30 31 32 33 35 36 37 38 38 39 40 41 42 43 45 47
19 19 19 19 19 19 20 21 21 21 21 21 22 23 23 24 24 24 25 25 25 25 26 28 29 30 31 31 32 33 34 36 37 38 39 39 40 41 42 44 46 48
19 19 20 20 20 20 20 20 21 22 22 23 23 23 24 25 25 25 26 26 26 26 26 27 29 30 31 31 32 33 34 36 37 38 39 40 40 41 43 44 46 49
19 19 20 21 21 21 21 21 21 22 23 23 24 24 24 25 26 26 26 26 27 26 27 27 29 30 31 31 32 33 34 36 37 38 39 40 40 42 43 45 47 49
19 19 20 21 21 22 23 23 22 22 23 23 24 24 25 25 26 27 27 27 27 27 27 28 29 30 31 31 32 32 33 35 37 38 39 40 41 42 43 45 47 50
19 19 20 21 21 22 22 23 23 23 23 22 23 24 24 25 26 27 28 27 27 28 28 28 29 30 31 32 32 33 33 34 36 38 39 39 40 42 43 45 47 50
19 19 20 21 21 21 22 22 23 24 23 22 23 24 24 24 25 26 27 27 27 28 28 28 29 29 30 31 32 33 33 33 34 37 38 39 40 41 43 45 47 50
20 19 19 20 21 22 22 22 23 24 23 23 24 24 23 23 24 25 27 27 27 28 28 28 28 29 30 31 32 33 34 33 34 36 37 38 39 41 43 45 47 50
23 22 20 19 20 22 22 21 22 23 23 25 26 26 25 24 24 25 26 27 27 27 27 28 28 29 30 31 32 33 34 33 33 35 37 38 39 41 42 44 47 49
25 24 23 21 21 21 21 21 22 22 23 25 26 26 26 26 25 25 26 26 26 27 27 27 27 28 29 31 31 32 33 33 33 35 36 37 38 40 42 44 46 48
25 26 25 24 23 22 22 22 23 23 23 24 25 26 27 27 27 26 26 26 26 26 26 26 27 28 29 30 31 31 33 33 33 34 36 37 38 39 41 43 45 47
Wind_Direction
3 2 3 9 12 10 5 1 360 2 4 5 4 2 2 4 4 3 3 4 5 6 5 3 2 3 2 1 2 2 0 359 358 357 358 0 0 0 1 1 0 359
3 1 2 9 12 10 5 360 358 2 6 9 7 4 4 5 4 3 4 5 7 8 7 5 4 4 3 2 2 3 2 0 359 357 358 359 359 360 0 0 359 359
4 1 2 9 11 8 5 0 358 1 6 9 8 6 5 5 3 4 6 7 9 9 8 7 6 6 5 4 4 4 3 2 360 359 358 358 358 359 359 359 358 358
4 3 4 7 9 7 3 359 357 358 2 6 7 6 5 3 2 4 7 9 10 11 10 9 8 8 7 6 6 6 5 3 1 0 0 358 357 358 358 358 357 356
5 5 7 6 4 2 359 356 354 353 355 360 2 4 4 2 1 3 6 9 11 12 12 11 10 9 8 8 8 8 7 6 3 3 2 360 357 357 356 356 356 355
7 6 9 7 2 357 352 351 350 349 350 353 356 0 2 2 1 1 4 7 9 12 13 12 11 10 9 9 9 9 9 8 7 5 4 2 359 356 355 354 354 353
8 7 8 8 3 357 351 348 347 348 349 349 350 356 360 1 0 0 2 4 6 9 11 11 11 10 10 9 9 9 10 10 9 8 6 4 2 358 356 354 353 351
7 7 8 7 4 1 356 351 350 349 350 349 349 352 356 358 0 1 2 5 6 7 8 9 9 9 9 8 8 7 8 9 10 9 7 5 3 0 357 354 352 350
6 6 6 5 4 3 359 355 353 351 352 351 350 351 353 354 358 359 1 3 6 6 7 7 7 7 7 7 6 6 6 8 8 8 6 5 3 1 358 355 352 350
2 3 3 3 1 1 359 357 354 352 352 351 351 352 351 350 351 353 355 357 360 2 4 5 6 5 6 6 5 4 4 5 6 6 5 4 3 1 358 356 353 350
357 358 0 0 359 358 356 356 355 353 352 351 351 352 352 350 347 347 348 350 352 354 357 1 3 4 5 5 3 3 2 2 3 3 3 3 2 0 358 356 353 351
352 353 354 356 356 354 352 352 353 352 351 351 350 350 351 351 348 346 345 345 347 349 351 354 358 1 3 3 2 1 1 0 0 0 1 1 0 359 358 356 354 352
351 349 348 349 350 351 349 349 349 349 350 350 349 348 347 349 349 347 346 345 345 346 347 349 352 356 359 1 1 1 359 359 358 357 358 359 358 358 357 355 354 352
349 347 345 344 344 346 346 346 346 346 347 347 347 346 344 345 345 346 346 346 345 345 346 346 348 351 354 357 359 360 359 357 356 356 356 356 357 357 357 356 354 352
346 346 345 342 341 341 342 343 343 344 344 345 345 345 343 343 343 343 344 345 346 346 346 346 347 348 350 352 355 357 357 356 355 355 354 354 355 356 356 355 354 351
345 344 344 342 340 339 339 339 339 340 341 342 342 343 342 342 342 342 343 345 346 347 347 346 346 346 347 349 351 353 355 356 355 354 353 353 354 355 355 355 353 351
344 343 341 340 339 338 338 337 336 336 337 338 339 340 341 341 341 342 343 344 346 346 347 347 346 346 347 347 348 349 352 354 354 353 353 352 353 354 354 354 353 351
343 341 339 338 337 337 337 337 336 335 334 334 335 337 338 338 339 340 342 343 345 346 346 346 346 347 347 347 347 347 349 352 354 353 352 351 351 353 353 354 354 352
344 341 338 336 335 335 335 336 335 335 333 333 333 334 335 335 336 338 340 341 343 344 345 345 345 347 347 347 347 346 346 349 352 353 352 351 350 351 353 354 354 352
344 342 338 336 335 335 335 334 334 333 332 331 332 332 332 332 333 335 337 339 340 342 343 344 344 345 346 347 347 347 346 347 350 351 351 350 350 351 352 354 354 353
339 338 334 332 334 335 334 333 331 330 329 328 329 330 329 329 330 331 333 336 338 339 341 343 343 344 345 346 347 346 346 347 348 349 350 350 350 350 352 354 354 354
332 333 331 328 329 331 333 332 330 326 325 325 326 326 326 327 327 328 330 333 335 336 339 341 342 342 343 344 346 345 345 346 347 348 349 350 350 350 352 354 355 354
326 327 328 326 325 327 330 330 328 327 325 323 323 323 324 326 327 325 327 330 332 333 336 338 340 341 341 343 344 344 344 345 346 347 348 349 350 351 352 354 355 354
321 322 324 323 321 323 325 324 325 327 324 321 322 323 324 325 327 325 324 327 329 330 332 336 338 339 339 340 343 344 343 344 345 346 347 349 350 351 352 354 355 354
317 318 319 319 317 318 319 319 320 321 319 319 321 323 324 325 326 325 325 325 326 328 330 333 336 337 337 339 341 343 343 343 344 345 347 349 351 351 352 354 354 354
313 313 313 314 313 314 315 316 317 317 317 320 321 321 322 323 323 324 325 325 324 325 327 331 334 335 335 337 339 341 342 343 343 344 346 349 351 351 352 353 354 354